Orbital Elements at Epoch 2459200.5 (2020-Dec-17.0) TDB
Reference: JPL 12 (heliocentric ecliptic J2000)
Element | Value | Uncertainty (1-sigma) | Units |
e | .1760895175073046 | 6.1821e-08 | |
a | 2.277068004114518 | 1.2182e-08 | au |
q | 1.876100197938672 | 1.4467e-07 | au |
i | 7.215209424510266 | 7.7189e-06 | deg |
node | 322.317481989539 | 4.4547e-05 | deg |
peri | 320.1305313755823 | 5.0353e-05 | deg |
M | 257.2576909105105 | 1.9548e-05 | deg |
tp | 2459558.686529882958 (2021-Dec-10.18652988) | 6.7973e-05 | TDB |
period | 1255.054046386584 3.44 | 1.0072e-05 2.758e-08 | d yr |
n | .2868402369096957 | 2.3019e-09 | deg/d |
Q | 2.678035810290364 | 1.4328e-08 | au |
|
| | Orbit Determination Parameters
Additional Information
|